Total_Precipitation_Accumulation
0.42 0.42 0.40 0.40 0.35 0.34 0.39 0.46 0.78 1.14 1.57 1.98 2.11 2.06 2.01 1.91 1.70 1.40 1.30 1.33 1.26 1.21 1.21 1.14 1.10 1.09 1.02 1.01 1.01 1.19 1.18 1.12 1.03 0.93 0.91 0.93 0.93 0.91 0.87 0.82 0.76 0.75 0.73 0.71
0.38 0.30 0.35 0.40 0.41 0.45 0.51 0.56 0.77 1.24 1.82 2.16 2.21 2.09 2.05 1.99 1.82 1.71 1.62 1.54 1.47 1.37 1.35 1.33 1.26 1.22 1.12 1.11 1.13 1.21 1.27 1.32 1.32 1.24 1.17 1.13 1.04 0.93 0.90 0.87 0.79 0.68 0.62 0.62
0.62 0.35 0.50 0.86 0.69 0.65 0.73 0.80 1.00 1.55 1.87 1.85 1.94 2.06 2.19 2.26 2.13 1.98 1.86 1.75 1.69 1.63 1.56 1.50 1.43 1.40 1.35 1.28 1.25 1.26 1.33 1.35 1.31 1.30 1.28 1.23 1.08 0.97 0.94 0.91 0.87 0.83 0.72 0.65
0.69 0.74 1.28 1.18 0.66 0.68 0.86 0.96 1.02 1.24 1.40 1.49 1.54 1.67 1.78 1.91 1.99 1.97 1.79 1.69 1.67 1.68 1.66 1.64 1.52 1.45 1.41 1.35 1.32 1.33 1.35 1.34 1.30 1.19 1.16 1.08 1.01 0.99 0.95 0.88 0.85 0.82 0.77 0.69
0.79 1.07 1.27 1.12 0.65 0.64 1.05 1.55 1.23 1.16 1.09 1.03 1.02 1.18 1.54 1.73 1.79 1.93 1.93 1.81 1.74 1.67 1.60 1.57 1.50 1.43 1.40 1.38 1.37 1.37 1.34 1.25 1.18 1.09 1.04 0.97 0.94 0.88 0.81 0.74 0.71 0.68 0.63 0.57
0.87 1.25 1.55 1.43 0.65 0.46 0.89 1.93 1.48 1.25 1.10 1.01 1.14 1.41 1.50 1.48 1.49 1.56 1.65 1.68 1.55 1.39 1.31 1.34 1.37 1.36 1.33 1.34 1.32 1.29 1.11 0.94 0.88 0.90 0.88 0.84 0.78 0.71 0.67 0.66 0.65 0.56 0.49 0.48
0.96 1.33 1.55 0.83 0.43 0.59 1.46 1.90 1.47 1.23 1.09 1.04 1.26 1.36 1.18 1.13 1.20 1.22 1.26 1.25 1.16 1.09 1.15 1.22 1.23 1.19 1.17 1.13 1.11 1.05 0.94 0.81 0.77 0.76 0.70 0.67 0.65 0.65 0.61 0.57 0.60 0.59 0.56 0.51
1.05 1.43 1.57 0.66 0.51 0.91 1.16 0.98 0.99 0.98 0.92 0.88 0.85 0.77 0.82 0.88 0.92 0.89 0.89 0.92 0.87 0.88 0.95 1.00 0.97 0.97 1.04 1.03 0.93 0.87 0.89 0.83 0.77 0.68 0.56 0.56 0.65 0.63 0.60 0.62 0.66 0.65 0.62 0.56
1.03 1.26 1.03 0.58 0.54 0.63 0.67 0.74 0.72 0.71 0.67 0.58 0.53 0.51 0.61 0.62 0.61 0.60 0.62 0.68 0.71 0.72 0.76 0.85 0.85 0.87 0.93 0.94 0.83 0.81 0.88 0.86 0.74 0.60 0.61 0.60 0.64 0.61 0.54 0.53 0.50 0.46 0.46 0.46
0.72 0.81 0.65 0.54 0.51 0.48 0.45 0.48 0.46 0.48 0.50 0.42 0.41 0.46 0.52 0.52 0.50 0.46 0.48 0.51 0.58 0.61 0.61 0.69 0.71 0.76 0.81 0.75 0.72 0.85 0.95 0.88 0.71 0.59 0.56 0.54 0.52 0.47 0.41 0.41 0.40 0.38 0.36 0.34
0.72 0.75 0.71 0.69 0.48 0.39 0.33 0.31 0.31 0.35 0.38 0.36 0.35 0.41 0.42 0.43 0.43 0.44 0.46 0.48 0.52 0.56 0.55 0.53 0.56 0.63 0.61 0.61 0.71 0.93 0.92 0.78 0.65 0.53 0.47 0.44 0.36 0.29 0.25 0.22 0.20 0.25 0.26 0.24
0.67 0.60 0.70 0.75 0.54 0.37 0.36 0.31 0.29 0.28 0.30 0.34 0.36 0.40 0.36 0.34 0.37 0.40 0.42 0.43 0.51 0.51 0.46 0.48 0.54 0.56 0.53 0.53 0.61 0.81 0.81 0.63 0.52 0.46 0.39 0.32 0.28 0.26 0.18 0.14 0.11 0.10 0.12 0.13
0.35 0.34 0.40 0.39 0.33 0.29 0.28 0.29 0.29 0.28 0.28 0.32 0.36 0.36 0.34 0.32 0.32 0.36 0.40 0.43 0.47 0.46 0.42 0.44 0.48 0.49 0.46 0.44 0.48 0.61 0.65 0.50 0.38 0.33 0.33 0.30 0.27 0.32 0.33 0.20 0.12 0.10 0.10 0.11
0.18 0.23 0.29 0.30 0.31 0.26 0.27 0.29 0.28 0.26 0.27 0.32 0.35 0.33 0.32 0.31 0.30 0.33 0.35 0.33 0.29 0.29 0.34 0.40 0.40 0.38 0.31 0.28 0.35 0.39 0.36 0.26 0.22 0.25 0.24 0.22 0.21 0.23 0.26 0.30 0.31 0.25 0.17 0.13
0.17 0.20 0.26 0.30 0.31 0.28 0.29 0.31 0.31 0.30 0.28 0.31 0.29 0.27 0.26 0.25 0.23 0.22 0.22 0.21 0.22 0.27 0.29 0.29 0.32 0.33 0.24 0.21 0.23 0.24 0.23 0.21 0.18 0.16 0.14 0.15 0.14 0.15 0.16 0.21 0.30 0.32 0.24 0.16
0.21 0.21 0.23 0.28 0.32 0.32 0.32 0.35 0.36 0.33 0.27 0.25 0.24 0.24 0.22 0.20 0.17 0.15 0.16 0.16 0.23 0.27 0.26 0.26 0.28 0.22 0.18 0.19 0.19 0.19 0.16 0.13 0.13 0.13 0.13 0.12 0.11 0.12 0.14 0.18 0.22 0.25 0.24 0.17
0.27 0.26 0.24 0.24 0.26 0.30 0.27 0.24 0.26 0.26 0.24 0.22 0.19 0.18 0.16 0.14 0.15 0.16 0.16 0.16 0.22 0.24 0.24 0.25 0.22 0.14 0.10 0.11 0.13 0.13 0.09 0.07 0.07 0.09 0.11 0.10 0.10 0.11 0.12 0.14 0.17 0.19 0.16 0.13
0.27 0.23 0.21 0.21 0.21 0.22 0.20 0.19 0.18 0.20 0.20 0.17 0.14 0.14 0.13 0.14 0.16 0.15 0.14 0.13 0.16 0.21 0.20 0.17 0.14 0.10 0.08 0.07 0.10 0.09 0.08 0.08 0.08 0.09 0.09 0.08 0.09 0.10 0.11 0.13 0.14 0.15 0.15 0.13
0.15 0.12 0.12 0.12 0.13 0.13 0.15 0.17 0.15 0.15 0.16 0.13 0.12 0.12 0.13 0.12 0.11 0.12 0.12 0.14 0.17 0.22 0.19 0.14 0.09 0.08 0.08 0.05 0.05 0.07 0.07 0.06 0.06 0.06 0.05 0.07 0.07 0.08 0.08 0.09 0.11 0.12 0.14 0.17
0.09 0.09 0.10 0.09 0.10 0.10 0.14 0.15 0.12 0.13 0.12 0.11 0.10 0.10 0.10 0.09 0.10 0.11 0.12 0.16 0.19 0.17 0.14 0.12 0.08 0.08 0.07 0.04 0.04 0.05 0.05 0.05 0.04 0.04 0.04 0.05 0.06 0.06 0.07 0.07 0.09 0.12 0.15 0.16
0.10 0.09 0.09 0.08 0.09 0.10 0.13 0.14 0.12 0.12 0.11 0.09 0.10 0.09 0.08 0.08 0.08 0.10 0.13 0.15 0.14 0.12 0.11 0.08 0.08 0.06 0.04 0.03 0.03 0.03 0.03 0.03 0.04 0.03 0.04 0.05 0.04 0.04 0.06 0.07 0.09 0.12 0.13 0.14
0.12 0.10 0.10 0.10 0.11 0.13 0.15 0.12 0.10 0.11 0.13 0.09 0.07 0.07 0.08 0.09 0.10 0.11 0.11 0.11 0.11 0.09 0.08 0.07 0.06 0.04 0.03 0.02 0.02 0.02 0.02 0.03 0.03 0.03 0.04 0.04 0.03 0.04 0.07 0.08 0.08 0.09 0.10 0.11
0.17 0.14 0.13 0.14 0.14 0.16 0.15 0.12 0.10 0.09 0.11 0.09 0.08 0.08 0.11 0.12 0.10 0.09 0.08 0.07 0.08 0.07 0.07 0.06 0.04 0.02 0.02 0.02 0.02 0.02 0.02 0.02 0.02 0.03 0.03 0.03 0.03 0.05 0.06 0.06 0.06 0.07 0.08 0.10
0.27 0.22 0.20 0.19 0.20 0.20 0.18 0.13 0.08 0.08 0.09 0.09 0.09 0.10 0.12 0.11 0.09 0.05 0.04 0.06 0.08 0.05 0.04 0.04 0.03 0.02 0.02 0.02 0.02 0.02 0.02 0.02 0.03 0.03 0.04 0.04 0.03 0.04 0.05 0.05 0.05 0.05 0.06 0.08
0.26 0.28 0.26 0.26 0.30 0.27 0.20 0.14 0.10 0.10 0.10 0.10 0.11 0.11 0.10 0.08 0.08 0.06 0.05 0.06 0.06 0.04 0.02 0.02 0.02 0.02 0.02 0.02 0.02 0.02 0.02 0.03 0.04 0.04 0.04 0.03 0.03 0.03 0.03 0.04 0.05 0.05 0.06 0.07
0.33 0.39 0.36 0.32 0.30 0.25 0.17 0.13 0.14 0.16 0.15 0.14 0.12 0.11 0.09 0.07 0.07 0.07 0.05 0.05 0.04 0.03 0.02 0.02 0.01 0.02 0.02 0.03 0.03 0.04 0.04 0.04 0.03 0.03 0.03 0.03 0.03 0.03 0.03 0.05 0.05 0.07 0.08 0.08
0.43 0.44 0.41 0.35 0.27 0.20 0.17 0.15 0.16 0.16 0.16 0.18 0.15 0.10 0.08 0.07 0.06 0.07 0.06 0.05 0.04 0.03 0.03 0.02 0.02 0.02 0.03 0.04 0.04 0.03 0.03 0.03 0.03 0.03 0.03 0.03 0.03 0.03 0.04 0.05 0.07 0.08 0.07 0.06